Location: Slanting_Bridge
(35.6330°N, 80.9830°W)
Time: 19:46:43
(UTC-05:00)

Amateur Radio Satellites - All Passes

Search period start: 16 January 2017 19:16
Search period end: 17 January 2017 19:16
Location: Slanting_Bridge, 35.6330°N, 80.9830°W

Satellite Date Start Highest point End Downlink Frequencies (MHz)
Time Altitude Azimuth
CUBEBUG 2 16 Jan 19:16:50 19:20:23 27° 72° (ENE) 19:23:56 437.445
CUTE-I 16 Jan 19:17:48 19:21:03 16° 267° (W) 19:24:20 437.470
GONETS M04 16 Jan 19:19:01 19:25:37 25° 83° (E) 19:32:14
CANX-2 16 Jan 19:19:19 19:23:33 86° 262° (W) 19:27:49 2200.000
STRAND 1 16 Jan 19:21:15 19:26:10 44° 99° (E) 19:31:03 437.568
HO-68 16 Jan 19:23:16 19:30:28 87° 255° (WSW) 19:37:43 435.675
NOAA 18 16 Jan 19:26:53 19:31:22 25° 264° (W) 19:35:53 137.9125
CINEMA 3 16 Jan 19:28:40 19:33:00 42° 261° (W) 19:37:12 145.822/145.860
Oscar 11 16 Jan 19:33:18 19:35:22 13° 66° (ENE) 19:37:27 145.826/435.025
SEEDS 16 Jan 19:39:41 19:43:52 89° 239° (WSW) 19:48:08 437.485
SRMSAT 16 Jan 19:52:20 19:56:03 17° 178° (S) 19:59:47 437.500
COMPASS 1 16 Jan 19:53:33 19:57:42 86° 81° (E) 20:01:56 437.405
UWE-3 16 Jan 19:54:01 19:58:00 46° 74° (ENE) 20:01:58 435.000/436.395/437.385
FUNcube-1 16 Jan 20:02:33 20:06:09 30° 72° (ENE) 20:09:45 145.935
AAUSAT CUBESAT 2 16 Jan 20:09:22 20:13:31 82° 260° (W) 20:17:43 437.432
AIST 2 16 Jan 20:18:34 20:22:28 45° 115° (ESE) 20:26:26 435.215
JUGNU 16 Jan 20:22:01 20:23:17 11° 194° (SSW) 20:24:33 437.505
ZACube-1 16 Jan 20:22:32 20:26:36 59° 76° (ENE) 20:30:40 437.345
CUTE 1.7 + AOD 2 16 Jan 20:28:41 20:31:15 16° 267° (W) 20:33:50 437.475
DELFI C3 16 Jan 20:30:59 20:33:47 18° 69° (ENE) 20:36:35 145.870
CUBEBUG 2 16 Jan 20:53:54 20:56:59 20° 265° (W) 21:00:03 437.445
STRAND 1 16 Jan 21:01:21 21:04:58 20° 294° (WNW) 21:08:36 437.568
Cosmos 2499 16 Jan 21:05:50 21:14:11 52° 281° (W) 21:22:03 435.465 / 435.565
Oscar 11 16 Jan 21:06:55 21:11:03 46° 261° (W) 21:15:13 145.826/435.025
HUMSAT D 16 Jan 21:12:03 21:15:36 30° 72° (ENE) 21:19:13 437.325/437.525
GONETS M04 16 Jan 21:13:09 21:21:41 61° 280° (W) 21:30:21
HO-68 16 Jan 21:16:15 21:19:00 12° 270° (W) 21:21:44 435.675
ANTELSAT 16 Jan 21:19:46 21:20:20 10° 92° (E) 21:20:55 437.575/2403.000
UWE-3 16 Jan 21:33:22 21:34:40 11° 268° (W) 21:35:59 435.000/436.395/437.385
FUNcube-1 16 Jan 21:39:38 21:42:24 17° 266° (W) 21:45:11 145.935
SRMSAT 16 Jan 21:41:14 21:44:28 15° 188° (S) 21:47:42 437.500
PRISM 16 Jan 21:42:45 21:46:53 77° 102° (ESE) 21:50:57 437.425
JAS-2 16 Jan 21:54:44 21:58:38 15° 91° (E) 22:02:39 435.910
AIST 2 16 Jan 21:58:35 22:01:10 16° 311° (NW) 22:03:45 435.215
DELFI C3 16 Jan 22:04:55 22:08:21 27° 263° (W) 22:11:49 145.870
RS-15 16 Jan 22:17:11 22:23:26 16° 97° (E) 22:29:47 29.354- 29.394
CUBEBUG 1 16 Jan 22:23:17 22:25:49 15° 67° (ENE) 22:28:21 437.445
UNISAT 6 16 Jan 22:24:05 22:28:29 64° 101° (ESE) 22:32:57 437.425
AISAT 16 Jan 22:29:37 22:31:06 11° 65° (ENE) 22:32:34 437.250
ESTCUBE 1 16 Jan 22:30:50 22:34:51 32° 71° (ENE) 22:38:53 437.505/2401.250
TIGRISAT 16 Jan 22:38:46 22:43:11 88° 96° (E) 22:47:41 435.000
HUMSAT D 16 Jan 22:48:33 22:51:15 17° 266° (W) 22:53:58 437.325/437.525
ANTELSAT 16 Jan 22:52:59 22:57:19 59° 285° (WNW) 23:01:45 437.575/2403.000
BY70-1 16 Jan 22:55:32 22:58:10 41° 262° (W) 23:01:04 436.1900
VELOX 1 16 Jan 23:00:52 23:04:29 25° 69° (ENE) 23:08:05 145.980
AO-85 16 Jan 23:03:21 23:05:08 13° 47° (NE) 23:06:55 145.980
QB50P1 16 Jan 23:09:07 23:11:47 16° 94° (E) 23:14:25 145.935-145.965
POLYITAN 1 16 Jan 23:11:43 23:14:36 18° 95° (E) 23:17:27 437.675
QB50P2 16 Jan 23:12:37 23:15:43 19° 95° (E) 23:18:47 145.880/145.840
ISS 16 Jan 23:34:00 23:37:15 88° 138° (SE) 23:40:30 145.825
POPSAT HIP 1 16 Jan 23:34:39 23:38:26 32° 98° (E) 23:42:13 437.405
JAS-2 16 Jan 23:36:58 23:44:06 89° 284° (WNW) 23:51:52 435.910
DX 1 16 Jan 23:46:23 23:50:25 37° 72° (ENE) 23:54:29 434.975-435.025
DUCHIFAT 1 16 Jan 23:50:37 23:54:37 43° 99° (E) 23:58:37 145.980
NANOSAT C BR1 16 Jan 23:53:51 23:57:58 52° 101° (E) 00:02:03 145.865
UKube-1 16 Jan 23:54:03 23:57:55 33° 71° (ENE) 00:01:48 .
CUBEBUG 1 16 Jan 23:57:30 00:01:42 43° 261° (W) 00:05:55 437.445
SPROUT 17 Jan 00:00:06 00:04:22 85° 76° (ENE) 00:08:38 437.525
AISAT 17 Jan 00:02:37 00:07:01 59° 259° (W) 00:11:25 437.250
UNISAT 6 17 Jan 00:03:46 00:04:39 11° 295° (WNW) 00:05:31 437.425
50 SAT 17 Jan 00:03:51 00:07:23 73° 258° (WSW) 00:10:58 437.505
ESTCUBE 1 17 Jan 00:08:20 00:11:39 20° 265° (W) 00:15:00 437.505/2401.250
TISAT 1 17 Jan 00:09:38 00:11:42 13° 66° (ENE) 00:13:45 437.305
RS-15 17 Jan 00:22:04 00:33:47 80° 115° (ESE) 00:46:04 29.354- 29.394
PCSat 17 Jan 00:27:12 00:30:34 17° 104° (ESE) 00:33:57 145.827
VELOX 1 17 Jan 00:37:06 00:40:47 26° 263° (W) 00:44:31 145.980
AO-85 17 Jan 00:42:02 00:45:48 49° 244° (WSW) 00:49:35 145.980
BUGSAT 1 17 Jan 00:42:10 00:46:09 60° 101° (ESE) 00:50:08 437.445
QB50P1 17 Jan 00:43:48 00:47:36 34° 288° (WNW) 00:51:25 145.935-145.965
YUBILEINY 17 Jan 00:45:19 00:51:57 23° 69° (ENE) 00:58:30 435.215
POLYITAN 1 17 Jan 00:46:40 00:50:24 31° 288° (WNW) 00:54:08 437.675
QB50P2 17 Jan 00:47:51 00:51:29 28° 289° (WNW) 00:55:06 145.880/145.840
Gurwin Techsat 1B 17 Jan 01:04:26 01:06:42 13° 91° (E) 01:08:59 435.225
POPSAT HIP 1 17 Jan 01:11:07 01:13:57 18° 292° (WNW) 01:16:47 437.405
ISS 17 Jan 01:12:32 01:14:07 13° 334° (NNW) 01:15:42 145.825
Oscar 19 17 Jan 01:21:06 01:25:55 38° 98° (E) 01:30:40 437.125/150
DX 1 17 Jan 01:24:00 01:26:42 16° 266° (W) 01:29:25 434.975-435.025
JAS-2 17 Jan 01:24:21 01:28:19 16° 298° (WNW) 01:32:27 435.910
AIST 1 17 Jan 01:24:43 01:28:40 35° 79° (E) 01:32:34
ITUPSAT 1 17 Jan 01:25:53 01:29:20 20° 67° (ENE) 01:32:48 437.325
DUCHIFAT 1 17 Jan 01:27:49 01:29:53 14° 294° (WNW) 01:31:59 145.980
Cosmos 2491 17 Jan 01:29:40 01:36:13 24° 82° (E) 01:42:45 435.465 / 435.565
UKube-1 17 Jan 01:31:02 01:33:59 18° 265° (W) 01:36:58 .
NANOSAT C BR1 17 Jan 01:31:51 01:33:11 11° 295° (WNW) 01:34:31 145.865
TISAT 1 17 Jan 01:42:57 01:46:55 43° 261° (W) 01:50:55 437.305
BEESAT 17 Jan 02:01:58 02:06:32 50° 73° (ENE) 02:11:08 436.000
SWISSCUBE 17 Jan 02:03:05 02:07:43 58° 74° (ENE) 02:12:24 437.505
PCSat 17 Jan 02:08:10 02:13:27 55° 300° (WNW) 02:18:47 145.827
MOZHAYETS 4 17 Jan 02:33:56 02:37:51 29° 70° (ENE) 02:41:46
Cosmos 2504 17 Jan 02:37:04 02:44:26 62° 81° (E) 02:51:29 435.465 / 435.565
RS-15 17 Jan 02:37:17 02:47:39 33° 320° (NW) 02:58:22 29.354- 29.394
YUBILEINY 17 Jan 02:40:41 02:49:26 69° 268° (W) 02:58:05 435.215
Gurwin Techsat 1B 17 Jan 02:41:47 02:47:03 66° 286° (WNW) 02:52:18 435.225
BEESAT 3 17 Jan 02:43:53 02:47:54 84° 61° (ENE) 02:51:53 437.485
CUSAT 1 17 Jan 02:45:10 02:47:30 14° 79° (E) 02:50:06 437.405
M-CUBED/EXP-1 PRIME 17 Jan 02:50:09 02:54:13 34° 68° (ENE) 02:58:07 437.505
PHONESAT 2.4 17 Jan 02:53:03 02:54:57 22° 149° (SSE) 02:56:50 2401.200-2431.200
Oscar 19 17 Jan 03:01:01 03:04:57 22° 293° (WNW) 03:08:52 437.125/150
ITUPSAT 1 17 Jan 03:02:31 03:06:52 36° 262° (W) 03:11:16 437.325
AIST 1 17 Jan 03:03:32 03:05:53 14° 274° (W) 03:08:11
CUBESAT XI-V 17 Jan 03:12:08 03:13:03 11° 64° (ENE) 03:13:59 437.345
STARS 17 Jan 03:14:09 03:15:02 11° 64° (ENE) 03:15:56 437.465
AO-7 17 Jan 03:14:38 03:22:09 36° 99° (E) 03:29:35 29.400- 29.500
BEESAT 2 17 Jan 03:19:48 03:23:52 88° 60° (ENE) 03:27:53 435.950
Cosmos 2491 17 Jan 03:23:43 03:32:17 62° 279° (W) 03:40:55 435.465 / 435.565
AUBIESAT-1 17 Jan 03:29:56 03:34:22 80° 72° (ENE) 03:38:35 437.475
ITAMSAT 1 17 Jan 03:33:59 03:39:12 76° 103° (ESE) 03:44:24 435.822/435.867
BEESAT 17 Jan 03:42:05 03:44:33 14° 267° (W) 03:47:03 436.000
KKS-1 17 Jan 03:42:12 03:46:32 53° 74° (ENE) 03:50:52 437.445
SWISSCUBE 17 Jan 03:44:03 03:45:49 12° 268° (W) 03:47:36 437.505
BRITE-PL 17 Jan 04:08:33 04:10:01 11° 88° (E) 04:11:26 437.365/2234.400
MOZHAYETS 4 17 Jan 04:11:22 04:14:57 23° 265° (W) 04:18:34
CUSAT 1 17 Jan 04:24:02 04:28:22 51° 284° (WNW) 04:34:05 437.405
M-CUBED/EXP-1 PRIME 17 Jan 04:25:21 04:28:38 20° 259° (W) 04:31:50 437.505
PHONESAT 2.4 17 Jan 04:26:49 04:29:03 43° 344° (NNW) 04:31:17 2401.200-2431.200
Cosmos 2504 17 Jan 04:32:08 04:36:59 19° 278° (W) 04:41:44 435.465 / 435.565
DANDE 17 Jan 04:36:23 04:39:29 41° 92° (E) 04:43:28 436.750
AIST 2 17 Jan 04:43:34 04:45:59 15° 48° (NE) 04:48:24 435.215
CUBESAT XI-V 17 Jan 04:45:06 04:49:45 72° 258° (WSW) 04:54:28 437.345
STARS 17 Jan 04:46:28 04:50:49 63° 259° (W) 04:55:10 437.465
HORYU 2 17 Jan 04:48:05 04:50:03 13° 93° (E) 04:52:00 437.375
RS-15 17 Jan 04:59:44 05:06:01 15° 354° (N) 05:12:19 29.354- 29.394
AO-7 17 Jan 05:07:06 05:14:57 47° 295° (WNW) 05:22:45 29.400- 29.500
ITAMSAT 1 17 Jan 05:16:05 05:17:58 12° 298° (WNW) 05:19:52 435.822/435.867
KKS-1 17 Jan 05:21:48 05:23:21 12° 268° (W) 05:24:55 437.445
NOAA 15 17 Jan 05:23:18 05:25:20 12° 91° (E) 05:27:22 137.62
DOVE 4 17 Jan 05:32:13 05:32:50 10° 91° (E) 05:33:25 437.250
BRITE-PL 17 Jan 05:44:06 05:49:01 60° 285° (WNW) 05:53:31 437.365/2234.400
CUTE-I 17 Jan 05:56:03 06:00:30 26° 96° (E) 06:04:56 437.470
LilacSat-2 17 Jan 05:58:58 06:02:19 28° 97° (E) 06:05:39 437.200
PHONESAT 2.4 17 Jan 06:01:37 06:03:33 22° 0° (N) 06:05:28 2401.200-2431.200
ISS 17 Jan 06:04:28 06:07:19 27° 34° (NE) 06:10:09 145.825
GOMX 1 17 Jan 06:07:59 06:12:30 87° 283° (WNW) 06:16:43 467.674
NOAA 18 17 Jan 06:11:25 06:15:14 19° 94° (E) 06:19:03 137.9125
AIST 2 17 Jan 06:20:38 06:24:46 53° 244° (WSW) 06:28:52 435.215
HORYU 2 17 Jan 06:22:32 06:26:49 49° 287° (WNW) 06:31:06 437.375
STRAND 1 17 Jan 06:34:12 06:39:03 46° 72° (ENE) 06:43:54 437.568
Cubesat XI-IV 17 Jan 06:37:18 06:42:38 67° 102° (ESE) 06:47:56 437.490
O/OREOS (USA 219) 17 Jan 06:49:48 06:54:04 46° 106° (ESE) 06:58:22 437.305
HO-68 17 Jan 06:55:41 07:00:50 21° 94° (E) 07:05:57 435.675
NOAA 15 17 Jan 07:00:14 07:05:32 69° 286° (WNW) 07:10:47 137.62
Cosmos 2499 17 Jan 07:01:03 07:07:52 45° 78° (ENE) 07:14:32 435.465 / 435.565
DOVE 4 17 Jan 07:06:47 07:10:51 48° 286° (WNW) 07:14:49 437.250
CANX-2 17 Jan 07:07:59 07:11:12 20° 95° (E) 07:14:23 2200.000
RS-15 17 Jan 07:16:05 07:25:27 24° 31° (NNE) 07:34:35 29.354- 29.394
CINEMA 3 17 Jan 07:25:45 07:29:49 51° 100° (E) 07:33:59 145.822/145.860
GONETS M04 17 Jan 07:26:51 07:35:34 60° 80° (E) 07:44:16
SEEDS 17 Jan 07:27:19 07:30:20 19° 94° (E) 07:33:20 437.485
SO-50 17 Jan 07:32:20 07:34:19 12° 108° (ESE) 07:36:17 436.795
LilacSat-2 17 Jan 07:33:50 07:36:22 17° 291° (WNW) 07:38:54 437.200
CUTE-I 17 Jan 07:35:47 07:40:31 33° 290° (WNW) 07:45:15 437.470
PHONESAT 2.4 17 Jan 07:35:48 07:38:03 43° 16° (NNE) 07:40:17 2401.200-2431.200
COMPASS 1 17 Jan 07:40:18 07:43:03 17° 94° (E) 07:45:47 437.405
ISS 17 Jan 07:41:01 07:43:43 24° 229° (SW) 07:46:24 145.825
UWE-3 17 Jan 07:48:01 07:49:43 12° 92° (E) 07:51:26 435.000/436.395/437.385
NOAA 18 17 Jan 07:50:53 07:56:04 47° 289° (WNW) 08:01:16 137.9125
AAUSAT CUBESAT 2 17 Jan 07:55:18 07:58:18 19° 94° (E) 08:01:17 437.432
CUTE 1.7 + AOD 2 17 Jan 08:14:24 08:18:42 74° 283° (WNW) 08:22:58 437.475
ZACube-1 17 Jan 08:14:43 08:17:12 15° 93° (E) 08:19:41 437.345
STRAND 1 17 Jan 08:15:06 08:18:24 17° 266° (W) 08:21:44 437.568
Cubesat XI-IV 17 Jan 08:19:24 08:22:05 14° 297° (WNW) 08:24:46 437.490
PRISM 17 Jan 08:29:01 08:32:48 35° 72° (ENE) 08:36:37 437.425
O/OREOS (USA 219) 17 Jan 08:31:09 08:33:43 15° 302° (WNW) 08:36:16 437.305
HO-68 17 Jan 08:41:52 08:48:57 64° 290° (WNW) 08:55:59 435.675
CANX-2 17 Jan 08:43:19 08:47:01 29° 289° (WNW) 08:50:42 2200.000
CUBEBUG 2 17 Jan 08:45:41 08:50:00 82° 282° (WNW) 08:54:26 437.445
Cosmos 2499 17 Jan 08:54:55 09:00:33 26° 275° (W) 09:06:07 435.465 / 435.565
Oscar 11 17 Jan 08:56:55 09:00:59 38° 98° (E) 09:05:02 145.826/435.025
SEEDS 17 Jan 09:02:18 09:06:01 30° 289° (WNW) 09:09:44 437.485
CINEMA 3 17 Jan 09:05:17 09:06:31 11° 294° (WNW) 09:07:45 145.822/145.860
SO-50 17 Jan 09:09:34 09:14:15 62° 302° (WNW) 09:18:54 436.795
PHONESAT 2.4 17 Jan 09:10:14 09:12:08 22° 211° (SSW) 09:14:03 2401.200-2431.200
COMPASS 1 17 Jan 09:14:52 09:18:38 33° 288° (WNW) 09:22:23 437.405
UNISAT 6 17 Jan 09:20:14 09:24:10 37° 73° (ENE) 09:28:05 437.425
UWE-3 17 Jan 09:22:11 09:26:22 50° 285° (WNW) 09:30:40 435.000/436.395/437.385
GONETS M04 17 Jan 09:24:52 09:31:41 26° 277° (W) 09:38:31
RS-15 17 Jan 09:28:17 09:40:40 72° 58° (ENE) 09:52:28 29.354- 29.394
FUNcube-1 17 Jan 09:28:22 09:32:44 81° 282° (WNW) 09:37:10 145.935
AAUSAT CUBESAT 2 17 Jan 09:30:09 09:33:45 28° 289° (WNW) 09:37:21 437.432
TIGRISAT 17 Jan 09:34:32 09:38:40 50° 74° (ENE) 09:42:47 435.000
DELFI C3 17 Jan 09:44:28 09:48:17 42° 99° (E) 09:52:03 145.870
JAS-2 17 Jan 09:48:22 09:52:33 25° 66° (ENE) 09:56:57 435.910
ANTELSAT 17 Jan 09:48:39 09:52:56 82° 74° (ENE) 09:57:11 437.575/2403.000
ZACube-1 17 Jan 09:49:29 09:53:35 41° 287° (WNW) 09:57:45 437.345
QB50P2 17 Jan 10:04:41 10:05:33 11° 65° (ENE) 10:06:25 145.880/145.840
PRISM 17 Jan 10:05:39 10:08:10 16° 266° (W) 10:10:42 437.425
POPSAT HIP 1 17 Jan 10:25:07 10:27:51 17° 68° (ENE) 10:30:36 437.405
HUMSAT D 17 Jan 10:32:48 10:37:05 89° 90° (E) 10:41:24 437.325/437.525
Oscar 11 17 Jan 10:34:03 10:36:46 16° 292° (WNW) 10:39:30 145.826/435.025
DUCHIFAT 1 17 Jan 10:40:03 10:43:15 22° 70° (ENE) 10:46:27 145.980
NANOSAT C BR1 17 Jan 10:43:19 10:46:48 26° 71° (ENE) 10:50:17 145.865
UNISAT 6 17 Jan 10:58:29 11:00:59 15° 266° (W) 11:03:29 437.425
PCSat 17 Jan 10:58:48 11:04:12 62° 61° (ENE) 11:09:33 145.827
TIGRISAT 17 Jan 11:14:31 11:15:36 11° 268° (W) 11:16:42 435.000
DELFI C3 17 Jan 11:21:00 11:22:40 12° 293° (WNW) 11:24:19 145.870
BUGSAT 1 17 Jan 11:29:10 11:32:39 27° 71° (ENE) 11:36:06 437.445
QB50P1 17 Jan 11:32:32 11:36:43 70° 259° (W) 11:40:54 145.935-145.965
JAS-2 17 Jan 11:32:46 11:37:26 34° 264° (W) 11:42:25 435.910
BY70-1 17 Jan 11:33:23 11:36:44 56° 285° (WNW) 11:39:53 436.1900
POLYITAN 1 17 Jan 11:35:33 11:39:42 63° 260° (W) 11:43:52 437.675
QB50P2 17 Jan 11:36:41 11:40:49 57° 260° (W) 11:44:57 145.880/145.840
RS-15 17 Jan 11:42:15 11:51:59 30° 258° (WSW) 12:01:27 29.354- 29.394
CUBEBUG 1 17 Jan 11:48:51 11:52:57 41° 99° (E) 11:57:00 437.445
SPROUT 17 Jan 11:49:48 11:52:39 17° 94° (E) 11:55:31 437.525
AISAT 17 Jan 11:55:52 11:59:45 31° 98° (E) 12:03:37 437.250
POPSAT HIP 1 17 Jan 11:59:33 12:03:21 33° 262° (W) 12:07:09 437.405
ESTCUBE 1 17 Jan 12:02:14 12:06:46 77° 285° (WNW) 12:11:16 437.505/2401.250
DUCHIFAT 1 17 Jan 12:15:19 12:18:46 25° 264° (W) 12:22:15 145.980
NANOSAT C BR1 17 Jan 12:19:16 12:22:27 21° 265° (W) 12:25:39 145.865
Gurwin Techsat 1B 17 Jan 12:22:24 12:25:40 17° 64° (ENE) 12:28:58 435.225
VELOX 1 17 Jan 12:29:05 12:33:29 73° 103° (ESE) 12:37:51 145.980
Oscar 19 17 Jan 12:34:55 12:39:46 42° 71° (ENE) 12:44:38 437.125/150
PCSat 17 Jan 12:44:05 12:46:59 15° 256° (WSW) 12:49:53 145.827
BUGSAT 1 17 Jan 13:05:03 13:07:59 19° 265° (W) 13:10:54 437.445
50 SAT 17 Jan 13:05:28 13:08:49 40° 286° (WNW) 13:12:09 437.505
DX 1 17 Jan 13:13:03 13:17:23 75° 284° (WNW) 13:21:41 434.975-435.025
CUSAT 1 17 Jan 13:18:59 13:23:47 17° 65° (ENE) 13:28:27 437.405
UKube-1 17 Jan 13:19:15 13:23:35 88° 278° (W) 13:27:52 .
SPROUT 17 Jan 13:24:49 13:28:37 32° 288° (WNW) 13:32:23 437.525
CUBEBUG 1 17 Jan 13:26:22 13:28:50 15° 294° (WNW) 13:31:18 437.445
TISAT 1 17 Jan 13:29:34 13:33:20 32° 98° (E) 13:37:05 437.305
AISAT 17 Jan 13:32:47 13:35:59 20° 292° (WNW) 13:39:10 437.250
Cosmos 2491 17 Jan 13:37:32 13:46:12 59° 80° (E) 13:54:50 435.465 / 435.565
YUBILEINY 17 Jan 13:42:42 13:49:50 29° 84° (E) 13:57:00 435.215
AIST 1 17 Jan 13:51:04 13:54:39 25° 89° (E) 13:58:13
Gurwin Techsat 1B 17 Jan 13:59:55 14:05:07 55° 259° (W) 14:10:20 435.225
BEESAT 17 Jan 14:06:11 14:09:07 16° 94° (E) 14:12:03 436.000
SWISSCUBE 17 Jan 14:07:05 14:10:27 19° 94° (E) 14:13:48 437.505
AO-7 17 Jan 14:10:25 14:17:56 39° 63° (ENE) 14:25:29 29.400- 29.500
Oscar 19 17 Jan 14:15:27 14:19:12 20° 266° (W) 14:22:58 437.125/150
JUGNU 17 Jan 14:42:34 14:43:25 10° 165° (SSE) 14:44:16 437.505
ITAMSAT 1 17 Jan 14:48:57 14:54:07 86° 73° (ENE) 14:59:19 435.822/435.867
AO-85 17 Jan 14:52:36 14:57:26 81° 298° (WNW) 15:01:55 145.980
CUSAT 1 17 Jan 14:58:41 15:06:44 87° 82° (E) 15:14:14 437.405
ITUPSAT 1 17 Jan 15:05:19 15:10:08 71° 102° (ESE) 15:14:55 437.325
TISAT 1 17 Jan 15:05:57 15:08:41 17° 292° (WNW) 15:11:25 437.305
Cosmos 2504 17 Jan 15:09:55 15:18:31 60° 91° (E) 15:26:42 435.465 / 435.565
DANDE 17 Jan 15:13:41 15:21:00 46° 77° (ENE) 15:28:55 436.750
BRITE-PL 17 Jan 15:15:13 15:17:59 14° 63° (ENE) 15:20:45 437.365/2234.400
AIST 1 17 Jan 15:28:43 15:32:08 22° 284° (WNW) 15:35:35
Cosmos 2491 17 Jan 15:35:32 15:42:21 26° 277° (W) 15:49:12 435.465 / 435.565
YUBILEINY 17 Jan 15:37:32 15:46:04 54° 281° (W) 15:54:42 435.215
KKS-1 17 Jan 15:37:57 15:39:50 12° 93° (E) 15:41:43 437.445
BEESAT 17 Jan 15:42:31 15:47:04 44° 288° (WNW) 15:51:36 436.000
SWISSCUBE 17 Jan 15:43:53 15:48:19 38° 289° (WNW) 15:52:44 437.505
AO-7 17 Jan 16:02:42 16:10:30 44° 259° (W) 16:18:24 29.400- 29.500
M-CUBED/EXP-1 PRIME 17 Jan 16:06:28 16:09:27 30° 102° (ESE) 16:12:21 437.505
MOZHAYETS 4 17 Jan 16:07:57 16:12:37 80° 285° (WNW) 16:17:14
JUGNU 17 Jan 16:28:06 16:31:38 16° 175° (S) 16:35:11 437.505
BEESAT 3 17 Jan 16:31:32 16:34:49 27° 112° (ESE) 16:38:08 437.485
DOVE 4 17 Jan 16:34:34 16:35:58 11° 65° (ENE) 16:37:21 437.250
STARS 17 Jan 16:39:01 16:42:46 28° 97° (E) 16:46:30 437.465
NOAA 15 17 Jan 16:40:08 16:43:17 16° 64° (ENE) 16:46:26 137.62
CUSAT 1 17 Jan 16:42:55 16:47:33 17° 279° (W) 16:52:04 437.405
CUBESAT XI-V 17 Jan 16:44:49 16:49:07 35° 97° (E) 16:53:22 437.345
AUBIESAT-1 17 Jan 16:45:47 16:49:09 87° 288° (WNW) 16:52:26 437.475
ITUPSAT 1 17 Jan 16:45:54 16:47:18 11° 297° (WNW) 16:48:43 437.325
BRITE-PL 17 Jan 16:50:03 16:55:41 78° 258° (WSW) 17:01:25 437.365/2234.400
DANDE 17 Jan 16:56:36 17:03:33 37° 270° (W) 17:10:58 436.750
O/OREOS (USA 219) 17 Jan 17:02:28 17:06:53 55° 68° (ENE) 17:11:19 437.305
Cosmos 2504 17 Jan 17:05:12 17:12:14 27° 288° (WNW) 17:19:03 435.465 / 435.565
BEESAT 2 17 Jan 17:08:46 17:12:11 29° 113° (ESE) 17:15:40 435.950
GOMX 1 17 Jan 17:11:32 17:16:59 73° 76° (ENE) 17:22:17 467.674
KKS-1 17 Jan 17:12:22 17:16:37 48° 287° (WNW) 17:20:52 437.445
CUTE-I 17 Jan 17:14:59 17:19:40 33° 69° (ENE) 17:24:22 437.470
HORYU 2 17 Jan 17:17:07 17:21:31 78° 257° (WSW) 17:25:56 437.375
HO-68 17 Jan 17:24:40 17:27:08 12° 55° (NE) 17:29:35 435.675
NOAA 18 17 Jan 17:34:31 17:39:10 29° 67° (ENE) 17:43:49 137.9125
M-CUBED/EXP-1 PRIME 17 Jan 17:42:26 17:43:38 12° 298° (WNW) 17:44:49 437.505
SO-50 17 Jan 17:43:46 17:48:09 50° 57° (ENE) 17:52:29 436.795
SRMSAT 17 Jan 17:51:55 17:54:39 13° 169° (S) 17:57:24 437.500
Cubesat XI-IV 17 Jan 17:56:19 18:01:38 82° 75° (ENE) 18:06:58 437.490
CANX-2 17 Jan 18:00:26 18:01:06 10° 65° (ENE) 18:01:46 2200.000
DOVE 4 17 Jan 18:07:56 18:13:04 76° 258° (WSW) 18:17:59 437.250
BEESAT 3 17 Jan 18:09:22 18:12:24 21° 308° (NW) 18:15:27 437.485
LilacSat-2 17 Jan 18:11:29 18:15:07 49° 260° (W) 18:18:49 437.200
STARS 17 Jan 18:15:35 18:18:56 22° 291° (WNW) 18:22:16 437.465
JUGNU 17 Jan 18:16:24 18:19:54 16° 186° (S) 18:23:24 437.505
NOAA 15 17 Jan 18:17:20 18:22:31 58° 259° (W) 18:27:46 137.62
CUBESAT XI-V 17 Jan 18:22:48 18:26:13 20° 292° (WNW) 18:29:36 437.345
CINEMA 3 17 Jan 18:24:27 18:28:32 34° 73° (ENE) 18:32:28 145.822/145.860
GONETS M04 17 Jan 18:35:04 18:37:10 11° 76° (ENE) 18:39:16
O/OREOS (USA 219) 17 Jan 18:44:23 18:45:44 11° 262° (W) 18:47:05 437.305
BEESAT 2 17 Jan 18:47:01 18:49:59 20° 309° (NW) 18:52:59 435.950
STRAND 1 17 Jan 18:48:24 18:52:08 20° 95° (E) 18:55:51 437.568
GOMX 1 17 Jan 18:53:15 18:55:24 12° 269° (W) 18:57:32 467.674
CUTE-I 17 Jan 18:55:16 18:59:40 26° 264° (W) 19:04:06 437.470
CUTE 1.7 + AOD 2 17 Jan 19:03:45 19:07:51 51° 74° (ENE) 19:11:59 437.475
